Lewiston, WA

1:28 AM PDT on August 22, 2017 (GMT -0700)
Lewiston-Nez Perce County

Weather History for KLWS - October, 2012

Change the Weather History Date:

Tuesday, October 9, 2012

  Actual Average Record
Temperature  
Mean Temperature 56 °F 55 °F  
Max Temperature 73 °F 66 °F 89 °F (1934)
Min Temperature 39 °F 43 °F 23 °F (1985)
Degree Days  
Heating Degree Days 9 11  
Month to date heating degree days 91 80  
Since 1 July heating degree days 103 194  
Cooling Degree Days 0 0  
Month to date cooling degree days 1 1  
Year to date cooling degree days 1034 805  
Growing Degree Days 6 (Base 50)    
Moisture  
Dew Point 28 °F    
Average Humidity 39    
Maximum Humidity 58    
Minimum Humidity 19    
Precipitation  
Precipitation 0.00 in 0.03 in 0.51 in (2004)
Month to date precipitation 0.00 0.24  
Year to date precipitation 11.26 9.44  
Snow  
Snow 0.00 in 0.00 in 0.00 in (1995)
Month to date snowfall 0.0 0.0  
Since 1 July snowfall 0.0 0.0  
Since 1 September snowfall 0.0 0.0  
Snow Depth 0.00 in    
Sea Level Pressure  
Sea Level Pressure 30.04 in    
Wind  
Wind Speed 2 mph (SSE)    
Max Wind Speed 8 mph    
Max Gust Speed 10 mph    
Visibility 9 miles    
Events      
T = Trace of Precipitation, MM = Missing Value Source: NWS Daily Summary

Daily Weather History Graph

Daily Weather History Graph

Search for Another Location

Airport or City:

Trip Planner

Search our weather history database for the weather conditions in past years. The results will help you decide how hot, cold, wet, or windy it might be!

Date:

Astronomy

Oct. 09, 2012 Rise Set
Actual Time 6:58 AM PDT 6:11 PM PDT
Civil Twilight 6:27 AM PDT 6:41 PM PDT
Nautical Twilight 5:53 AM PDT 7:16 PM PDT
Astronomical Twilight 5:17 AM PDT 7:51 PM PDT
Moon 12:18 AM PDT (10/9) 2:59 PM PDT (10/9)
Length of Visible Light 12h 13m
Length of Day
11h 13m
Waning Crescent, 35% of the Moon is Illuminated
Oct 9
Waning Crescent
Oct 15
New
Oct 21
First Quarter
Oct 29
Full
Nov 6
Last Quarter

Hourly Weather History & Observations

Time (PDT) Temp. Dew Point Humidity Pressure Visibility Wind Dir Wind Speed Gust Speed Precip Events Conditions
12:56 AM 50.0 °F 23.0 °F 35% 29.99 in 10.0 mi Calm Calm - N/A   Smoke
1:56 AM 46.9 °F 23.0 °F 39% 30.01 in 10.0 mi Calm Calm - N/A   Smoke
2:56 AM 46.9 °F 26.1 °F 44% 30.01 in 10.0 mi Calm Calm - N/A   Smoke
3:56 AM 44.1 °F 23.0 °F 43% 30.03 in 10.0 mi Calm Calm - N/A   Smoke
4:56 AM 45.0 °F 27.0 °F 49% 30.04 in 10.0 mi Calm Calm - N/A   Smoke
5:56 AM 43.0 °F 26.1 °F 51% 30.06 in 10.0 mi Calm Calm - N/A   Smoke
6:56 AM 41.0 °F 26.1 °F 55% 30.08 in 10.0 mi Calm Calm - N/A   Clear
7:56 AM 44.1 °F 30.0 °F 58% 30.09 in 8.0 mi Calm Calm - N/A   Clear
8:56 AM 48.0 °F 30.0 °F 50% 30.11 in 8.0 mi ENE 3.5 mph - N/A   Clear
9:56 AM 51.1 °F 30.0 °F 44% 30.12 in 8.0 mi NNE 3.5 mph - N/A   Clear
10:56 AM 55.9 °F 30.9 °F 39% 30.10 in 8.0 mi Calm Calm - N/A   Clear
11:56 AM 59.0 °F 30.9 °F 35% 30.09 in 7.0 mi NW 3.5 mph - N/A   Clear
12:56 PM 63.0 °F 28.9 °F 28% 30.07 in 8.0 mi Variable 3.5 mph - N/A   Clear
1:56 PM 66.9 °F 28.0 °F 23% 30.04 in 9.0 mi Calm Calm - N/A   Clear
2:56 PM 69.1 °F 28.0 °F 22% 30.03 in 9.0 mi Calm Calm - N/A   Clear
3:56 PM 72.0 °F 27.0 °F 19% 30.01 in 9.0 mi Calm Calm - N/A   Clear
4:56 PM 71.1 °F 28.0 °F 20% 30.00 in 9.0 mi Calm Calm - N/A   Clear
5:56 PM 68.0 °F 28.9 °F 23% 30.00 in 9.0 mi Calm Calm - N/A   Clear
6:56 PM 62.1 °F 28.9 °F 29% 30.01 in 9.0 mi Calm Calm - N/A   Clear
7:56 PM 59.0 °F 28.0 °F 31% 30.01 in 10.0 mi SSE 4.6 mph - N/A   Clear
8:56 PM 57.0 °F 27.0 °F 32% 30.02 in 10.0 mi South 4.6 mph - N/A   Clear
9:56 PM 57.0 °F 27.0 °F 32% 30.02 in 10.0 mi SW 4.6 mph - N/A   Clear
10:56 PM 53.1 °F 28.0 °F 38% 30.01 in 10.0 mi SSE 3.5 mph - N/A   Clear
11:56 PM 52.0 °F 28.0 °F 40% 30.01 in 10.0 mi Calm Calm - N/A   Clear